Wind_Speed
42 42 41 39 39 37 36 34 33 32 31 32 32 32 32 31 30 29 28 28 28 27 26 25 25 23 22 21 21 20 20 19 19 18 17 16 17 16 16 16 14 13 13 13 13 12 12 11 11 10 10 10 10 10 10 11 11 11 12 12 12 13 13 14 16 18 17 15 16 16 15 16 18 18 17 17 18 18 18 18 19 20 21 22 24
43 42 41 41 40 39 37 35 34 33 32 32 32 33 33 32 31 30 29 29 29 28 27 26 26 25 24 23 22 22 22 21 19 19 19 18 18 18 19 19 18 16 15 14 14 14 13 13 12 11 11 12 11 11 11 11 11 12 12 13 13 13 14 16 16 19 20 19 18 19 19 19 20 19 19 18 18 19 20 20 21 22 22 23 24
43 43 42 41 40 39 38 37 35 34 33 32 32 32 32 32 32 31 30 29 29 28 27 27 27 27 25 25 24 23 23 22 20 21 21 20 20 20 20 20 20 19 17 16 15 14 14 15 14 12 13 13 12 12 13 13 13 13 14 14 15 15 15 17 17 18 21 21 21 21 20 21 22 22 22 21 20 20 21 21 22 23 24 24 25
41 43 43 41 40 39 38 37 36 35 34 33 32 31 30 30 32 32 30 29 29 28 28 28 28 28 28 27 26 25 24 23 22 22 22 21 21 21 21 21 20 19 19 18 16 15 15 15 14 13 14 14 14 14 14 15 15 15 16 16 16 16 16 18 19 19 21 22 23 22 22 23 24 24 24 24 24 23 23 24 24 25 25 26 28
39 42 43 41 41 40 39 38 37 36 34 34 33 31 29 29 30 31 31 29 29 29 29 29 29 29 29 29 28 27 26 25 24 23 22 22 22 22 22 22 21 20 19 19 18 16 16 16 15 14 15 16 16 16 16 16 16 16 16 16 17 17 17 18 19 20 22 24 25 25 26 26 26 26 26 24 24 24 25 26 27 28 29 29 30
38 40 42 42 42 41 40 39 38 36 35 34 32 31 30 28 29 30 30 30 29 29 29 30 30 30 30 30 29 29 27 26 26 25 24 23 23 22 22 22 22 21 20 20 19 18 18 18 18 17 18 18 18 18 18 17 17 17 17 17 18 18 18 18 18 19 21 24 25 26 26 26 26 25 24 22 21 22 23 25 28 30 31 32 32
38 40 41 41 41 41 40 40 40 38 36 34 33 31 30 29 28 29 30 30 30 30 30 30 30 30 31 31 30 29 28 28 28 27 26 25 25 24 23 23 23 22 21 21 21 20 20 20 20 20 20 20 19 19 18 18 18 18 18 19 20 20 20 20 19 20 20 20 21 22 22 24 24 25 24 22 20 21 21 24 30 32 32 33 33
40 41 42 41 41 41 40 40 40 39 38 36 34 33 32 31 29 29 30 31 30 30 31 31 30 30 31 31 31 30 30 30 29 29 28 27 27 26 25 24 24 23 23 23 22 22 22 22 21 21 21 21 20 19 19 19 20 20 20 21 21 20 20 21 20 20 18 17 17 17 19 21 23 24 23 20 20 21 20 23 31 34 32 31 30
39 41 42 43 43 41 40 40 40 40 39 38 36 35 34 34 32 31 32 31 30 30 31 31 31 31 32 32 31 31 31 31 31 31 30 29 29 28 27 27 26 26 26 25 24 24 23 23 22 22 22 22 20 20 20 20 20 20 21 21 20 19 18 20 20 18 16 15 16 16 17 19 20 20 20 20 22 22 18 19 26 30 30 31 31
40 41 43 45 44 42 41 41 41 41 40 39 37 36 36 35 34 34 33 31 30 30 30 31 31 32 33 33 32 32 32 33 33 32 30 30 29 29 29 29 28 28 28 28 26 25 25 24 24 24 24 23 22 21 21 21 21 21 21 21 20 19 18 19 19 16 14 15 15 16 18 20 19 19 21 23 24 23 19 19 21 23 27 33 34
43 45 45 45 44 43 42 41 41 41 41 40 38 37 36 36 35 34 33 31 30 30 30 31 31 31 32 33 33 33 34 34 34 32 30 29 29 29 30 30 30 30 30 29 28 27 26 26 25 25 25 24 23 23 23 22 22 22 22 22 22 21 21 20 20 17 16 16 17 17 19 20 19 19 20 22 22 20 20 21 21 22 25 32 34
44 46 44 43 44 44 43 42 41 41 41 40 39 37 36 36 35 34 33 31 31 30 30 31 31 30 30 31 32 33 34 34 34 32 30 29 29 29 29 30 30 31 30 30 29 29 28 28 27 27 27 26 25 25 24 24 24 24 24 24 23 23 23 23 22 21 19 18 18 18 18 19 19 19 19 20 22 23 24 24 25 26 26 30 32
41 43 43 43 45 44 43 42 42 42 42 41 39 38 37 37 36 35 34 32 32 32 32 32 32 32 31 32 32 32 32 33 33 32 30 29 29 29 29 30 31 32 31 31 30 30 30 29 29 29 28 28 27 26 26 26 25 25 25 25 25 24 24 24 23 23 22 22 21 19 19 19 20 21 20 21 25 29 29 27 26 26 25 28 33
38 42 44 44 44 43 42 42 42 42 42 41 40 39 38 37 37 35 34 34 34 34 34 33 33 33 33 33 33 32 32 33 33 32 30 30 29 29 29 30 31 32 32 32 32 31 31 31 31 30 29 29 29 28 27 26 26 27 26 26 25 24 24 23 23 23 23 23 23 21 20 20 21 23 23 24 27 29 29 29 28 26 27 29 33
37 40 44 45 44 42 41 42 42 42 42 42 41 40 39 38 37 37 36 35 35 35 35 34 34 34 34 34 34 34 34 34 34 33 31 30 30 29 30 31 32 33 34 33 33 33 32 32 32 31 31 30 29 29 28 27 26 26 25 24 23 21 19 19 19 20 21 21 20 19 19 19 21 23 23 23 25 27 28 30 32 31 33 34 32
37 39 43 44 42 41 41 41 42 42 42 42 42 41 40 39 39 38 37 36 36 36 35 35 35 34 34 34 34 35 35 35 35 34 32 31 30 30 31 32 33 34 35 35 34 34 34 34 33 32 32 31 30 29 28 27 26 26 25 24 22 19 17 16 16 17 18 18 18 18 19 19 21 23 23 24 26 27 28 31 32 32 34 36 32
40 42 44 43 41 40 40 41 42 42 42 42 42 42 41 40 39 38 37 37 36 36 36 35 34 34 34 34 35 35 35 36 36 35 33 33 32 31 32 33 34 36 36 36 35 35 35 35 34 33 33 32 31 29 28 27 26 26 26 25 24 21 17 15 15 17 17 17 18 20 21 22 23 25 27 26 25 25 27 30 30 29 30 34 33
44 44 43 41 40 40 40 40 40 40 41 42 42 42 41 40 39 38 37 37 36 35 34 34 34 34 34 34 34 35 35 35 36 35 34 34 33 32 32 33 34 36 36 36 36 36 36 36 35 34 33 32 30 29 28 26 26 26 26 25 25 22 16 13 14 15 17 19 21 23 24 24 24 26 26 24 21 22 24 26 25 25 26 28 32
43 42 41 40 39 39 38 37 37 38 40 41 41 41 40 39 38 37 36 35 34 34 33 33 33 33 34 34 33 34 33 33 35 35 34 34 33 32 32 33 35 36 36 36 36 36 36 36 35 35 33 31 30 28 27 25 25 26 25 24 24 20 14 12 13 14 16 19 21 23 25 25 24 25 24 20 16 17 19 19 19 21 25 27 29
40 40 40 40 38 35 34 34 35 36 38 39 40 40 39 38 37 36 35 34 34 34 33 33 33 33 33 32 33 33 32 32 33 34 34 33 32 32 33 34 35 36 36 35 35 35 36 36 36 35 33 30 28 26 25 24 25 25 25 25 23 17 12 12 14 15 17 19 21 24 25 24 23 23 21 17 13 13 14 15 16 18 22 26 26
39 39 39 39 36 34 33 33 33 35 36 36 37 37 37 36 36 35 34 33 33 33 33 32 31 31 31 31 31 31 32 32 32 33 34 33 32 32 33 34 34 34 35 35 34 33 33 32 32 33 32 27 23 22 23 24 24 25 27 27 25 19 16 15 17 17 18 21 24 24 23 21 18 16 16 14 11 12 13 14 15 16 18 22 24
37 37 38 38 36 34 33 33 33 34 34 34 35 35 35 35 35 34 33 32 31 33 33 31 29 28 28 28 28 30 31 31 32 32 32 32 31 31 31 32 32 32 32 31 27 26 25 24 24 27 27 22 18 19 21 22 24 26 28 27 25 22 20 19 19 19 20 23 24 22 20 17 14 12 13 12 11 12 13 13 14 15 17 19 19
35 35 37 37 36 34 33 33 33 33 33 33 32 33 34 34 34 34 33 31 30 29 28 27 26 25 25 25 25 26 27 27 29 31 31 30 29 29 29 29 28 29 28 24 19 17 18 16 16 20 21 18 16 18 20 22 24 26 26 25 23 21 21 22 21 22 23 24 23 22 19 15 13 11 12 11 11 12 13 14 15 16 19 21 21
34 35 36 36 36 35 34 33 32 32 32 31 31 32 33 33 33 33 31 29 27 25 22 19 20 22 23 23 22 22 21 21 24 27 28 27 26 25 25 24 24 25 24 20 15 15 17 16 17 18 17 16 16 17 19 22 23 23 23 23 21 20 22 24 23 24 26 24 21 19 17 14 12 11 11 10 11 12 14 15 18 19 21 24 25
34 34 36 35 35 35 33 31 30 29 29 30 30 31 31 32 33 31 26 23 22 23 21 19 19 20 21 21 21 21 21 21 20 22 24 25 23 22 22 21 21 22 22 19 17 18 20 21 20 18 16 15 16 18 20 22 22 21 21 21 20 20 22 24 25 27 27 24 18 16 15 14 12 10 10 11 12 13 16 18 21 23 24 26 27
34 34 34 34 34 32 31 29 27 27 27 28 28 29 29 30 31 29 25 23 22 21 21 21 21 20 20 20 20 20 21 21 18 18 20 21 20 19 19 19 19 19 19 19 19 20 21 20 19 18 17 17 18 19 21 21 21 21 21 20 20 19 20 24 26 23 18 16 13 11 10 10 9 8 10 11 13 15 17 20 22 23 24 25 25
33 32 32 31 30 30 30 28 26 26 27 27 27 27 28 29 28 28 27 26 24 22 21 21 22 21 20 20 20 20 21 21 19 17 17 18 18 17 16 18 19 19 20 20 20 19 20 19 19 19 19 19 20 20 22 21 21 21 20 20 20 19 19 24 27 21 12 9 8 7 7 8 9 9 10 11 13 16 18 20 21 22 22 22 22
30 29 29 30 30 30 30 29 27 25 25 25 25 24 26 27 27 27 28 27 25 23 22 22 22 22 21 20 20 20 21 20 19 17 16 16 15 14 15 17 19 19 20 19 19 20 21 21 21 21 21 21 21 22 22 22 21 21 21 21 20 20 20 24 27 24 18 14 13 11 8 9 11 11 12 13 15 18 19 20 20 20 20 19 20
30 29 30 30 29 30 30 28 26 24 22 24 27 27 26 27 26 25 26 27 26 25 24 23 23 21 19 20 21 21 20 19 19 19 18 17 15 13 13 16 18 19 19 19 20 21 22 22 22 23 23 21 20 20 22 23 23 23 23 22 20 19 18 19 20 20 19 19 19 16 11 11 13 14 15 16 18 19 19 20 20 19 19 19 19
29 28 29 27 24 25 27 26 25 24 22 24 30 31 30 29 27 25 26 27 27 27 26 25 24 21 20 22 23 21 20 19 19 19 17 16 15 16 16 16 17 19 20 21 22 23 23 24 24 24 23 20 18 16 18 22 24 23 22 21 17 15 20 22 18 15 15 14 15 15 13 14 16 18 18 18 18 18 18 19 19 18 18 18 19
29 26 27 28 24 22 22 22 24 24 23 25 30 31 31 31 28 27 27 27 26 26 27 27 26 24 22 24 23 21 20 19 18 18 16 15 15 17 19 19 19 20 22 23 24 24 25 23 21 19 18 16 15 15 17 21 22 20 19 17 14 14 18 20 17 14 12 12 13 15 14 16 18 18 18 18 17 16 15 15 15 15 16 17 18
26 22 22 26 27 24 21 20 21 22 24 28 31 30 30 31 30 29 29 28 26 25 25 26 26 25 24 23 22 21 21 19 18 18 18 17 17 18 19 19 20 21 22 24 25 24 22 18 15 16 17 17 18 19 19 20 19 17 15 14 12 12 14 15 15 14 14 14 14 14 14 16 17 16 15 14 13 12 11 12 13 14 16 16 17
19 18 17 19 23 24 23 22 24 25 27 31 32 30 30 31 31 32 32 31 30 28 26 24 24 24 24 23 21 21 21 19 18 18 18 18 18 18 18 18 19 21 21 23 25 25 22 19 20 21 22 21 21 21 20 18 17 16 15 14 13 14 15 16 15 15 14 14 13 12 13 13 13 11 10 9 8 8 9 10 12 14 16 17 17
14 16 17 15 15 17 21 25 26 27 29 29 29 29 30 31 31 32 31 31 32 31 29 26 24 22 22 21 20 20 19 17 16 16 17 17 18 18 18 18 20 21 22 24 26 28 26 25 25 24 22 21 20 20 18 17 17 16 15 15 15 16 16 15 14 13 12 10 9 9 10 9 8 7 5 4 4 6 8 9 10 13 15 16 16
12 15 18 17 14 12 15 19 22 25 28 28 25 25 28 30 30 29 29 30 31 31 29 27 24 22 20 20 19 19 18 17 16 16 16 17 17 18 18 20 23 25 27 26 26 25 24 24 23 20 19 18 18 17 17 17 16 15 16 16 16 16 14 12 11 10 8 7 7 8 8 7 5 4 2 2 3 5 6 7 7 10 13 14 14
8 11 14 16 15 12 11 13 16 20 25 25 23 21 24 25 26 27 27 27 27 27 26 26 23 20 19 18 18 17 17 16 16 16 17 17 17 17 19 22 26 26 25 22 20 18 19 20 19 18 18 18 18 18 17 17 16 17 18 17 16 15 13 11 10 9 8 8 9 9 7 5 4 3 2 2 3 4 5 6 6 7 9 12 13
5 7 9 11 13 14 13 14 16 18 21 22 22 22 23 24 25 26 26 24 24 24 24 24 23 21 18 17 16 16 15 15 15 15 15 16 16 16 18 22 24 23 21 20 19 19 19 19 19 19 19 19 19 19 17 17 18 20 19 18 17 14 12 10 10 9 8 8 9 9 7 6 4 3 2 2 2 2 3 5 5 6 8 11 12
5 5 7 10 13 16 16 17 18 19 21 23 24 25 24 23 23 23 23 23 23 23 23 22 21 21 20 18 16 14 14 14 14 14 15 15 16 17 18 20 20 20 21 21 22 22 21 21 20 20 19 18 18 17 16 18 20 20 18 16 13 11 10 9 9 9 9 9 8 8 6 5 4 3 1 2 2 2 3 4 4 5 6 8 8
4 4 5 7 11 15 18 20 20 21 23 25 25 24 22 22 22 23 24 25 25 24 24 24 23 22 21 20 18 16 16 16 16 16 17 18 18 19 19 20 21 22 22 22 22 21 20 20 20 19 17 16 14 14 16 20 22 20 17 14 11 9 9 8 8 9 9 9 8 7 6 5 5 3 2 2 3 3 3 4 4 5 6 6 7
3 3 3 3 7 11 14 17 19 21 22 23 22 20 21 24 26 27 28 28 25 24 24 24 25 24 23 22 21 20 20 20 19 19 20 21 21 20 20 20 21 21 21 21 20 19 18 17 17 17 17 16 15 14 17 20 21 18 15 13 10 8 8 8 8 9 8 8 8 7 5 5 4 3 2 3 4 4 4 5 6 6 7 7 8
6 3 2 3 7 10 12 16 19 21 21 22 23 25 27 30 32 31 31 29 27 26 26 26 27 26 24 23 22 21 20 21 22 23 24 25 24 23 22 21 20 20 19 18 18 17 17 16 16 16 16 16 16 16 18 20 20 17 15 13 11 9 8 8 8 8 8 8 7 6 5 5 5 4 4 5 5 5 5 7 8 8 8 9 9
10 7 3 2 7 11 14 17 21 23 24 26 28 31 33 34 34 33 31 30 29 29 29 29 28 26 24 22 20 19 19 21 23 23 23 23 22 21 21 20 20 19 18 18 17 17 16 16 16 15 15 15 15 15 15 17 17 16 13 10 9 9 8 8 9 9 8 8 7 6 6 7 6 5 5 6 6 6 7 9 10 10 10 11 11
11 9 7 5 5 11 16 18 21 24 26 27 28 30 32 33 33 31 29 28 28 29 30 30 29 27 25 23 21 20 21 22 22 22 22 21 20 19 18 18 17 17 17 17 17 16 16 15 15 14 14 14 14 14 15 15 14 13 11 8 7 8 9 11 12 13 13 11 10 9 8 7 6 7 8 9 10 10 10 11 11 12 12 12 12
8 8 7 6 4 6 12 16 19 21 23 24 25 26 28 30 31 30 28 29 30 30 30 31 30 29 28 25 23 22 23 23 21 20 20 19 18 18 17 16 15 15 14 14 13 13 13 13 13 13 12 12 12 13 13 13 12 10 9 8 7 8 9 11 13 14 14 13 13 12 11 10 9 8 9 10 11 12 12 13 13 14 14 14 13
6 6 5 4 3 5 7 11 14 17 19 21 23 25 27 29 30 31 32 33 33 32 32 31 31 30 29 28 26 24 23 21 19 18 16 15 15 15 14 13 13 12 12 11 11 10 10 9 9 9 9 9 9 10 10 10 11 10 10 10 11 11 12 12 13 14 15 15 15 15 15 14 13 12 11 11 12 13 14 14 14 15 15 15 15
4 3 3 3 2 5 7 8 11 14 18 21 23 25 28 30 31 32 34 34 33 33 33 33 32 31 29 28 26 24 21 19 18 17 15 14 13 12 11 10 9 8 8 8 8 8 7 7 7 7 6 7 8 8 9 10 10 11 11 11 12 13 14 14 15 16 16 17 17 18 18 18 18 18 17 17 16 16 16 16 16 17 16 16 15
3 2 3 4 4 5 7 8 11 13 16 19 22 25 27 29 30 31 32 32 32 32 32 31 30 29 27 25 23 21 20 19 18 17 16 15 14 12 10 9 8 7 6 7 7 7 6 6 6 6 7 7 7 8 8 8 8 8 9 9 10 11 12 14 16 17 19 20 20 20 21 20 20 20 21 20 18 17 17 17 18 19 19 17 16
7 8 7 6 4 4 7 9 11 13 16 18 20 22 25 27 28 29 30 30 30 29 29 27 26 24 23 21 20 19 18 18 18 18 17 15 14 12 11 9 8 7 6 6 7 6 5 5 5 5 5 6 6 6 7 7 7 7 7 8 8 9 9 10 11 13 15 17 18 19 21 21 21 22 22 21 19 19 20 20 19 19 19 20 19
8 10 11 8 4 2 5 9 12 14 16 18 19 21 23 25 27 28 28 28 28 27 26 25 24 22 20 19 18 17 17 18 19 19 18 16 14 12 11 9 7 6 6 7 7 6 5 4 4 5 5 5 5 5 5 6 6 7 7 7 8 8 8 9 9 9 10 11 12 14 15 16 17 18 18 17 16 16 18 19 19 19 19 19 19
9 11 10 8 6 5 5 6 9 12 15 17 19 21 24 26 27 27 27 27 26 25 24 22 21 20 19 18 19 20 20 21 21 20 17 15 13 12 10 8 8 8 8 7 6 6 5 5 4 4 5 5 5 5 5 6 6 6 7 7 8 8 9 9 9 9 10 10 11 11 11 12 12 12 11 11 11 12 14 16 17 18 18 18 18
10 12 12 11 12 12 12 11 10 12 16 19 20 22 25 26 26 26 25 24 22 21 21 20 20 20 21 22 23 24 23 23 21 19 16 15 14 13 11 9 9 8 7 5 4 4 5 5 5 5 5 5 5 5 5 5 5 5 5 6 6 7 8 8 9 10 11 11 11 11 10 11 11 11 10 11 12 14 15 15 14 14 15 15 16
Wind_Direction
218 218 217 217 218 218 218 218 220 221 220 220 222 222 223 223 223 223 224 225 226 226 225 226 228 229 228 228 228 227 228 226 228 229 229 231 235 237 239 243 245 245 243 241 243 246 247 245 244 245 247 248 253 257 258 265 271 273 275 277 277 279 280 280 283 289 294 294 294 295 292 290 290 292 293 294 296 297 294 291 290 289 288 287 287
217 218 217 217 217 217 218 218 219 220 220 221 222 223 224 224 224 223 224 225 226 226 226 226 228 229 229 230 229 229 230 228 228 231 233 234 236 241 243 245 247 251 252 250 250 253 256 256 252 248 248 249 252 258 260 260 263 269 272 274 277 277 279 284 286 290 294 297 299 300 299 299 298 299 300 300 301 302 301 300 297 294 292 290 289
216 217 216 216 217 217 217 218 219 219 220 222 223 223 224 225 225 224 224 225 225 225 225 226 227 228 228 229 229 229 230 230 229 231 235 236 237 241 245 248 249 250 254 255 255 255 258 261 259 255 254 254 255 259 261 258 258 262 266 271 277 279 281 286 288 289 292 295 296 297 297 298 298 300 302 302 302 302 300 299 298 297 296 294 291
211 217 217 216 216 217 217 218 219 219 219 221 223 222 222 224 226 224 223 224 225 223 223 225 227 227 226 228 228 228 229 230 230 232 235 237 239 241 245 248 249 249 251 252 253 251 253 259 259 256 256 258 261 264 264 265 266 268 271 273 276 280 281 284 287 289 291 292 293 295 295 294 295 297 298 299 300 300 299 298 297 295 293 292 291
206 214 217 216 216 217 216 216 219 219 218 219 221 220 219 220 225 225 222 222 223 223 222 222 225 226 226 227 228 228 228 229 230 232 235 237 239 242 245 247 247 248 249 249 249 248 249 253 255 253 256 260 265 267 268 271 271 272 273 274 276 279 279 280 284 286 287 288 291 292 293 293 294 294 293 293 294 296 298 299 297 295 293 292 291
201 208 215 216 216 217 216 216 217 218 217 217 217 217 215 216 221 225 223 220 220 222 222 222 224 226 227 227 228 229 228 229 230 231 233 237 239 240 243 246 247 247 247 247 248 248 249 253 255 256 259 262 265 268 270 272 274 273 274 275 278 281 281 279 280 281 283 286 289 291 292 293 294 293 292 290 288 292 299 299 296 295 295 295 295
198 204 211 214 216 218 217 216 217 217 217 216 214 214 214 213 216 222 224 221 219 220 222 222 223 226 227 228 228 230 230 231 231 232 232 235 238 239 240 243 246 247 246 246 248 251 254 257 259 259 261 262 263 265 269 271 274 275 277 279 283 286 287 286 284 283 283 283 286 289 291 293 293 291 292 291 286 290 299 298 294 293 294 297 299
198 205 210 212 215 218 217 217 217 216 217 217 215 214 215 214 214 219 224 223 220 220 222 223 224 224 227 229 229 230 232 233 234 233 233 234 237 239 240 241 243 245 247 248 249 252 255 258 260 260 260 260 260 261 266 270 273 276 279 282 284 286 286 286 285 281 277 276 278 282 285 289 290 290 292 290 287 293 299 294 291 294 298 300 300
196 202 209 214 217 218 217 217 217 217 217 218 217 216 217 218 217 220 225 225 223 222 223 225 226 225 226 229 230 231 233 235 235 235 234 234 236 239 241 241 242 244 247 249 251 252 254 255 257 259 259 259 259 260 263 266 270 274 277 280 282 281 281 282 281 277 273 272 274 277 280 282 283 287 288 286 288 293 292 285 288 297 303 302 299
197 202 211 216 218 217 216 217 217 216 216 217 217 217 219 221 222 223 227 226 224 224 224 226 228 229 229 230 231 233 235 237 238 237 236 236 236 238 240 242 243 244 246 249 251 253 254 255 255 256 257 259 259 261 263 265 267 269 271 273 275 275 275 276 276 272 269 270 272 275 277 277 278 281 283 283 286 288 284 281 287 297 302 301 301
203 209 213 216 217 217 217 217 217 217 216 216 216 216 218 221 223 224 226 225 224 224 224 226 228 230 232 233 234 236 238 240 241 240 238 237 237 238 240 242 244 245 246 248 249 251 253 255 256 257 257 257 258 260 263 264 267 268 270 271 271 271 270 269 269 267 266 269 272 273 273 275 278 280 280 283 285 283 281 282 287 294 301 303 305
206 211 212 212 216 218 218 217 217 217 216 216 216 216 218 221 223 223 224 224 224 224 224 226 227 228 231 234 235 237 239 242 243 242 239 237 236 237 239 241 244 246 247 248 249 250 252 254 256 258 259 260 260 262 264 265 267 269 271 272 270 269 266 264 264 264 263 265 268 269 270 274 277 279 282 285 284 281 282 285 290 296 300 301 302
204 208 209 211 217 219 218 217 217 217 217 217 217 217 218 220 222 223 224 224 225 225 225 227 227 227 229 232 234 235 238 242 243 241 240 237 236 236 238 241 244 246 248 249 249 250 252 253 255 257 259 261 262 264 266 268 270 272 273 272 270 266 263 261 262 261 261 263 265 267 272 278 282 285 286 285 284 285 288 291 296 299 298 296 297
200 207 209 213 219 220 219 218 217 217 218 217 217 217 218 220 221 223 225 226 226 227 228 229 229 229 229 231 232 233 236 240 243 242 239 238 237 237 238 241 244 246 248 249 250 251 252 253 254 255 257 260 262 264 266 269 273 276 277 275 272 268 265 262 260 259 259 261 264 270 276 279 281 282 283 285 287 289 292 295 299 301 298 296 297
198 206 211 215 219 219 218 218 218 219 219 218 218 217 217 219 221 223 225 227 228 229 230 231 232 232 232 232 233 234 235 238 242 242 240 238 237 237 238 240 243 245 247 248 249 251 252 253 254 255 257 259 261 263 266 269 274 277 277 276 274 272 269 266 264 261 259 259 262 270 275 274 274 276 279 281 283 286 290 294 299 302 301 300 300
198 206 212 217 219 219 218 218 218 219 220 220 219 218 218 220 221 222 224 227 230 232 233 233 235 236 236 235 235 236 236 237 240 242 241 240 238 238 238 240 242 244 246 247 249 250 252 253 255 256 258 259 261 263 266 269 272 273 272 271 271 269 267 268 267 267 268 270 270 271 271 271 272 275 276 275 278 286 293 295 298 302 302 302 302
204 211 216 219 220 219 218 218 218 219 220 221 220 220 220 221 221 222 224 226 229 233 234 235 237 238 239 239 238 238 238 239 240 240 241 241 240 239 239 240 242 244 246 247 249 250 252 253 255 257 258 260 262 264 265 267 268 267 265 265 268 269 267 265 265 273 285 287 279 274 274 274 273 273 275 278 284 291 292 293 298 302 300 301 303
211 217 220 221 220 220 219 218 218 219 220 221 221 222 222 223 223 223 224 226 228 232 235 236 237 238 239 240 240 240 240 241 241 241 241 241 241 241 241 241 243 244 246 248 249 250 252 254 255 257 258 261 263 264 265 265 263 260 259 260 264 267 268 265 266 277 286 285 281 279 278 276 276 278 282 286 289 286 284 288 295 297 294 298 304
215 220 221 220 220 220 219 218 218 219 220 221 222 223 223 224 224 224 225 227 228 230 233 235 237 238 239 241 242 242 241 243 244 243 241 242 241 241 241 242 243 244 246 248 250 251 253 255 256 257 258 260 263 264 263 260 256 254 255 257 261 265 267 267 266 266 269 273 276 276 275 278 286 291 292 291 282 274 276 282 288 291 294 298 302
218 220 220 218 218 217 217 217 217 218 219 221 223 224 225 225 226 226 226 227 228 229 231 233 236 238 240 242 244 244 243 243 245 245 243 242 240 239 240 241 242 244 246 247 250 252 254 256 258 259 259 260 261 261 258 253 248 248 249 251 256 261 263 260 257 254 258 264 267 269 275 286 293 293 291 290 282 273 276 283 284 286 291 295 298
217 218 218 218 216 214 213 213 214 216 219 221 222 224 225 226 227 227 227 227 228 230 230 231 234 237 239 241 244 245 245 243 244 245 243 242 240 238 238 240 241 243 245 248 250 252 255 258 259 261 262 261 256 250 246 243 241 242 244 247 251 257 262 263 262 262 265 267 269 277 289 293 289 282 285 292 291 284 286 290 288 285 286 290 294
217 218 218 216 215 214 213 212 213 216 218 220 221 223 225 226 228 229 228 228 229 231 232 231 230 232 235 237 240 244 246 245 244 244 244 242 240 238 237 239 240 242 244 247 249 251 254 255 258 261 262 257 243 235 234 236 237 239 242 246 249 255 262 267 268 269 269 269 276 289 295 288 277 274 282 290 292 290 291 290 288 289 291 292 290
217 217 216 214 214 214 214 214 215 216 217 219 220 223 225 227 227 229 229 227 227 229 231 230 229 229 231 234 237 241 244 245 244 244 243 242 240 237 236 237 239 240 243 244 244 248 252 252 253 257 255 246 233 229 229 230 234 238 241 244 248 251 256 261 265 268 268 270 280 288 286 278 276 281 284 289 292 291 290 289 289 292 297 300 300
215 215 215 214 213 214 215 216 217 217 217 219 220 222 225 226 226 228 229 227 224 224 224 222 224 226 228 231 233 234 236 239 241 243 242 240 238 236 234 236 238 240 242 241 239 242 247 247 248 250 248 239 232 230 229 230 234 236 238 241 244 246 252 257 260 262 265 270 276 278 275 273 278 285 289 290 289 290 294 298 301 304 305 306 306
214 215 215 212 212 214 215 216 217 218 219 220 220 221 223 224 226 226 224 220 219 221 220 218 219 223 225 227 229 229 230 234 238 242 241 237 234 235 236 236 238 240 241 239 233 230 231 235 239 243 242 237 233 233 232 232 234 237 239 239 239 242 249 255 258 262 266 270 270 268 269 273 277 282 287 291 297 303 309 310 310 310 309 307 307
214 214 214 213 213 213 214 216 217 217 218 219 220 220 220 222 223 223 220 217 214 214 215 215 217 220 222 224 225 226 229 231 232 237 239 234 229 234 240 239 237 235 234 233 232 228 226 230 234 237 237 235 235 238 237 234 235 239 241 239 239 240 246 256 264 267 265 263 264 267 269 271 274 280 288 298 308 311 311 310 309 309 309 308 308
214 214 213 213 212 211 212 212 211 212 215 215 216 218 221 220 220 222 221 217 213 212 211 212 215 218 221 223 224 224 227 227 225 228 236 236 232 234 238 238 235 230 227 226 227 228 226 226 229 231 232 232 236 241 242 241 241 244 245 245 245 243 244 255 262 261 248 240 252 267 276 279 285 294 300 308 312 310 308 310 310 310 312 314 317
214 213 212 211 210 209 209 207 204 205 208 209 208 212 218 219 218 221 224 220 216 215 213 211 213 215 218 221 223 224 225 225 223 222 225 230 235 238 235 230 226 225 224 221 220 222 223 221 224 229 231 234 239 243 244 244 246 250 252 253 255 257 254 250 248 246 247 257 263 265 282 298 300 306 312 311 310 310 311 313 315 317 321 326 330
214 213 212 211 209 209 208 206 204 201 199 204 207 207 212 216 215 217 224 224 220 218 216 214 216 216 216 220 222 222 223 224 223 221 219 220 225 228 226 221 217 216 217 215 213 217 220 219 223 228 230 231 235 239 243 246 247 250 253 255 259 258 243 224 220 228 241 255 261 267 289 307 303 304 309 308 309 313 315 318 322 324 328 333 336
213 212 211 207 206 209 208 204 204 201 197 207 213 210 210 214 211 209 215 220 221 220 217 217 217 215 215 220 223 223 224 225 225 227 228 227 225 219 216 216 214 210 210 211 211 214 218 219 221 225 226 227 228 230 237 244 247 250 254 255 251 231 209 201 207 224 231 233 241 254 275 289 290 295 300 302 307 312 315 319 324 327 332 338 340
212 210 209 204 201 204 205 203 204 203 201 213 222 219 216 216 214 212 214 218 221 222 220 219 218 215 213 218 222 225 227 228 228 231 234 232 225 219 216 216 212 209 210 212 213 215 218 219 221 222 223 224 221 217 226 241 250 254 252 243 226 200 194 200 211 220 218 215 224 239 258 273 279 285 291 296 303 311 317 324 330 336 342 347 347
212 206 208 208 207 207 206 202 202 200 202 212 221 223 222 221 220 218 219 220 222 224 224 223 223 222 222 225 227 228 230 230 229 228 227 223 220 219 219 216 212 211 212 212 214 216 216 214 212 213 215 217 215 216 227 242 246 238 225 214 200 188 192 201 204 206 211 218 227 240 255 266 272 280 287 294 304 316 326 337 345 351 353 353 352
204 199 202 209 210 212 213 210 207 206 209 216 221 224 226 227 225 223 223 223 224 227 230 229 227 226 228 231 230 228 229 229 227 224 222 219 216 217 217 214 212 213 213 212 214 215 214 212 214 218 222 224 224 226 232 233 224 209 200 195 190 189 193 197 200 206 214 221 230 242 253 261 268 276 283 293 309 327 342 352 359 0 359 359 358
193 194 198 199 199 207 217 220 219 220 223 226 227 227 228 230 230 229 228 227 228 229 231 231 228 224 223 225 225 224 223 221 220 220 220 218 216 215 213 212 212 212 211 213 216 219 221 224 226 228 228 225 221 218 215 207 197 192 190 188 188 191 197 199 202 210 220 227 233 241 247 251 257 263 274 302 329 346 360 2 0 2 4 4 4
199 201 204 203 199 202 213 220 224 228 230 230 227 226 228 230 229 227 227 228 228 227 225 223 220 217 216 216 216 217 217 215 214 214 216 217 216 213 209 210 213 213 213 215 219 223 224 224 221 215 209 205 199 193 190 188 186 187 188 186 186 193 200 205 210 216 217 213 219 229 232 233 233 237 266 329 348 359 6 3 354 358 3 5 6
211 222 220 216 213 211 211 213 217 223 227 226 220 218 224 225 221 219 222 223 222 218 212 208 205 203 204 207 209 212 212 212 213 215 217 218 215 212 210 212 213 212 209 206 207 209 210 207 199 188 183 183 182 179 179 181 184 186 187 186 189 196 202 206 215 219 207 198 210 220 220 216 215 216 240 296 332 346 348 350 347 343 347 359 7
177 218 221 212 211 212 212 210 211 212 215 213 208 208 215 216 213 213 213 211 208 204 196 190 187 186 184 185 191 196 197 201 208 214 215 212 205 202 206 209 206 199 189 181 176 177 180 180 176 172 172 173 174 175 176 180 185 188 189 190 193 198 203 207 216 221 207 199 209 213 204 206 220 217 209 251 300 319 320 333 340 327 328 349 2
171 205 212 207 212 215 211 208 208 207 204 201 200 205 210 209 206 204 199 193 191 188 178 171 172 174 170 165 167 175 180 186 194 196 194 190 185 187 193 195 189 182 176 171 167 166 166 166 165 167 169 169 171 173 174 178 184 188 191 195 198 200 205 212 223 225 210 196 202 209 202 204 224 229 214 250 282 299 307 320 330 326 329 341 345
164 193 203 210 219 219 214 209 204 199 197 198 201 206 205 198 191 187 181 175 172 169 163 160 161 163 162 158 159 164 171 177 181 184 183 180 178 179 180 178 173 170 168 166 165 165 166 166 166 167 169 170 169 169 173 180 186 189 190 191 196 201 206 214 222 220 208 194 197 206 202 203 221 233 223 240 268 284 297 308 317 324 330 332 333
81 132 152 206 222 216 209 205 199 194 195 198 199 197 191 182 176 172 167 162 159 158 159 159 158 158 159 159 161 167 174 175 174 172 170 168 167 167 167 167 166 166 164 164 166 168 170 171 171 174 177 177 174 172 176 182 187 191 191 190 193 198 203 206 204 200 196 195 198 202 205 213 230 244 246 260 279 293 306 313 317 320 321 319 324
34 75 113 198 211 201 190 185 183 184 186 183 178 174 171 168 166 165 164 165 166 166 165 162 159 158 159 161 165 172 176 173 165 160 159 160 160 161 161 161 163 164 163 163 166 168 170 172 175 177 181 184 185 187 188 187 188 191 195 197 200 200 195 195 195 193 196 202 206 212 226 235 239 239 244 269 299 317 315 313 316 320 321 318 318
24 31 24 262 217 199 186 180 178 178 177 175 174 174 172 171 171 172 174 176 176 172 164 158 154 152 153 156 161 166 167 162 156 154 155 157 157 158 160 161 162 163 163 164 167 170 172 175 178 180 183 188 190 193 195 194 192 194 198 204 212 212 206 203 204 202 201 204 211 223 234 243 256 270 280 296 311 311 302 303 307 311 314 315 315
25 21 7 333 245 203 186 177 175 175 175 176 179 180 178 177 176 178 179 177 172 165 158 152 147 144 144 147 153 157 155 152 152 153 154 155 156 159 162 163 163 164 167 168 170 173 175 177 179 181 184 186 188 191 194 195 194 194 199 207 219 224 222 220 217 213 210 213 222 228 231 239 254 267 276 285 290 290 290 295 297 299 302 307 310
28 12 4 356 312 229 195 180 174 172 171 175 178 177 174 172 170 170 169 164 158 154 150 146 141 140 142 147 154 158 155 152 153 155 156 158 161 164 166 166 166 169 170 169 171 175 177 177 179 181 183 185 188 193 197 199 199 201 208 217 227 234 232 227 224 222 223 228 234 237 240 246 253 259 267 274 279 284 287 289 290 291 294 297 299
42 8 355 354 316 258 218 192 177 166 162 165 169 168 165 163 161 159 156 153 150 148 146 144 144 146 150 155 159 161 159 157 158 159 159 160 162 164 164 163 163 164 165 166 169 172 172 170 171 176 180 184 189 196 204 210 212 218 227 234 238 240 239 236 234 234 236 239 243 246 250 255 261 266 270 272 273 277 282 284 285 286 286 286 288
63 33 6 348 278 236 213 194 183 171 159 154 155 157 157 157 155 153 152 152 152 150 148 149 152 154 156 158 159 159 159 161 163 163 163 162 160 157 153 149 144 144 149 158 164 167 165 163 167 173 178 182 188 197 209 220 225 230 235 238 241 242 242 243 243 244 245 246 249 252 255 258 261 265 269 271 274 277 280 281 281 281 280 279 279
350 341 342 332 296 251 220 199 189 182 170 157 151 150 151 153 154 155 154 155 156 154 151 152 155 157 157 159 159 158 158 159 160 162 162 159 151 144 136 126 119 116 122 130 135 137 141 149 159 169 178 183 187 195 205 216 226 233 238 243 249 252 252 251 251 252 253 253 254 256 258 261 263 265 268 271 275 277 277 276 278 280 281 279 276
309 305 303 301 289 251 225 206 191 184 180 173 165 158 154 154 156 158 158 158 158 156 154 153 155 156 158 160 159 157 155 154 153 154 154 150 142 135 128 120 113 114 122 128 127 125 129 138 146 156 170 179 183 187 194 202 211 223 233 241 250 257 264 268 269 269 268 268 267 266 266 267 268 270 272 275 277 277 277 277 278 280 280 278 276
275 284 288 287 278 232 220 213 202 193 187 182 178 172 166 161 159 159 160 162 161 159 157 157 157 159 161 160 157 152 149 148 147 147 145 143 140 135 131 126 117 115 122 129 129 130 135 142 149 160 171 178 181 188 197 204 210 222 235 247 256 263 269 274 277 280 281 280 278 276 274 273 273 275 278 281 281 281 281 280 279 278 278 279 279
256 259 262 252 217 183 174 184 197 199 193 184 177 173 171 170 168 167 168 168 165 163 162 162 162 161 160 155 151 147 146 146 146 144 142 141 139 135 134 132 126 122 124 128 135 146 154 155 158 171 182 188 195 206 219 226 229 234 245 253 260 266 269 274 280 285 288 289 288 286 284 283 282 281 283 284 283 280 280 280 279 279 280 280 280
261 250 244 232 215 200 184 170 171 185 191 190 185 180 178 177 176 172 169 169 167 165 165 163 161 158 154 151 150 149 147 146 145 144 143 142 141 141 144 145 139 136 140 147 159 172 175 176 184 193 197 202 209 214 221 231 238 245 256 264 270 278 285 291 296 299 300 302 303 301 297 295 295 291 286 284 284 282 281 282 283 283 285 285 284
Height
1517 1520 1524 1528 1530 1534 1537 1540 1543 1546 1549 1551 1553 1556 1558 1560 1563 1565 1567 1569 1571 1573 1576 1578 1580 1581 1583 1585 1586 1587 1588 1589 1591 1591 1593 1594 1594 1595 1596 1596 1597 1598 1599 1600 1601 1602 1603 1603 1604 1605 1605 1605 1606 1606 1607 1607 1607 1607 1607 1607 1607 1607 1607 1607 1607 1605 1606 1606 1606 1606 1605 1605 1603 1603 1602 1602 1601 1601 1600 1599 1598 1596 1595 1593 1591
1512 1516 1520 1523 1526 1530 1534 1537 1540 1543 1546 1548 1550 1553 1555 1557 1560 1562 1564 1566 1568 1571 1573 1575 1577 1579 1581 1582 1583 1585 1586 1587 1589 1589 1590 1591 1592 1593 1594 1595 1595 1596 1597 1598 1599 1600 1601 1601 1602 1603 1603 1604 1604 1605 1605 1606 1606 1606 1605 1605 1606 1606 1605 1605 1605 1604 1603 1603 1604 1603 1602 1601 1600 1600 1600 1599 1599 1598 1597 1596 1594 1592 1591 1589 1588
1508 1512 1515 1519 1523 1526 1530 1533 1536 1539 1542 1545 1547 1549 1552 1554 1557 1559 1561 1563 1565 1568 1570 1572 1574 1576 1578 1579 1581 1582 1583 1585 1586 1587 1588 1589 1590 1591 1592 1592 1593 1594 1595 1596 1597 1598 1599 1599 1600 1601 1601 1602 1602 1603 1604 1604 1605 1604 1604 1604 1604 1604 1604 1603 1603 1602 1601 1601 1601 1600 1599 1598 1597 1597 1597 1596 1596 1595 1594 1593 1591 1589 1587 1585 1584
1505 1508 1511 1515 1519 1523 1526 1529 1533 1536 1539 1542 1544 1547 1549 1551 1553 1556 1558 1561 1562 1564 1567 1569 1571 1573 1575 1576 1578 1579 1581 1582 1583 1584 1585 1586 1587 1589 1589 1590 1591 1592 1593 1594 1595 1596 1597 1597 1598 1599 1599 1600 1600 1601 1601 1602 1603 1603 1603 1603 1602 1602 1602 1601 1601 1600 1599 1598 1598 1597 1596 1595 1595 1594 1594 1593 1593 1592 1590 1589 1587 1585 1583 1581 1579
1501 1504 1507 1512 1515 1519 1522 1525 1529 1532 1535 1538 1541 1544 1547 1549 1550 1552 1555 1558 1559 1561 1563 1566 1567 1569 1571 1573 1575 1576 1578 1579 1581 1582 1583 1584 1585 1586 1587 1588 1589 1590 1591 1592 1593 1594 1595 1595 1596 1597 1597 1597 1598 1598 1599 1600 1600 1601 1601 1601 1601 1600 1600 1600 1599 1598 1597 1595 1594 1594 1593 1592 1591 1591 1590 1590 1589 1588 1587 1584 1582 1580 1578 1577 1575
1498 1500 1503 1507 1511 1514 1518 1521 1524 1527 1531 1535 1538 1541 1544 1546 1548 1549 1552 1554 1556 1558 1560 1562 1564 1566 1568 1570 1572 1573 1575 1576 1578 1579 1581 1582 1583 1584 1585 1585 1586 1588 1589 1589 1590 1591 1592 1593 1594 1594 1595 1595 1596 1596 1597 1597 1598 1598 1598 1598 1599 1598 1598 1597 1596 1595 1594 1593 1592 1591 1590 1588 1587 1586 1586 1585 1585 1584 1583 1580 1577 1575 1573 1571 1570
1494 1497 1500 1503 1507 1510 1513 1517 1520 1524 1527 1531 1534 1537 1540 1543 1545 1547 1549 1551 1553 1555 1557 1559 1561 1563 1565 1567 1569 1570 1572 1573 1575 1576 1578 1579 1580 1581 1582 1583 1584 1585 1586 1587 1588 1589 1590 1590 1591 1592 1592 1592 1593 1594 1595 1595 1596 1596 1596 1596 1596 1596 1595 1595 1594 1593 1592 1591 1590 1589 1587 1586 1584 1582 1582 1581 1580 1580 1580 1577 1572 1570 1569 1568 1568
1489 1492 1496 1499 1502 1505 1509 1513 1517 1520 1524 1527 1531 1534 1536 1539 1542 1544 1545 1548 1550 1552 1554 1556 1558 1560 1562 1563 1565 1567 1568 1570 1571 1573 1575 1576 1578 1579 1580 1581 1582 1583 1583 1584 1585 1586 1587 1588 1588 1589 1589 1590 1591 1592 1592 1593 1594 1594 1594 1594 1594 1594 1593 1592 1591 1590 1590 1589 1588 1587 1585 1583 1581 1580 1579 1578 1577 1576 1576 1573 1568 1566 1567 1567 1566
1486 1488 1491 1494 1497 1501 1505 1509 1513 1517 1520 1523 1526 1530 1532 1535 1538 1540 1542 1544 1547 1549 1551 1553 1555 1557 1559 1560 1562 1564 1565 1566 1568 1569 1571 1573 1575 1576 1577 1578 1579 1580 1581 1582 1583 1584 1585 1585 1586 1587 1587 1587 1588 1589 1590 1591 1591 1591 1592 1591 1591 1591 1590 1590 1589 1588 1588 1587 1586 1585 1584 1582 1580 1578 1576 1575 1574 1573 1573 1570 1566 1564 1564 1563 1562
1481 1484 1487 1490 1493 1498 1502 1505 1509 1513 1516 1519 1523 1526 1529 1531 1534 1536 1538 1541 1544 1546 1548 1550 1551 1553 1555 1557 1559 1560 1561 1563 1564 1566 1568 1570 1572 1574 1574 1575 1576 1577 1578 1579 1580 1581 1582 1583 1583 1584 1584 1585 1585 1586 1587 1588 1588 1589 1589 1589 1589 1589 1588 1587 1587 1586 1586 1585 1585 1584 1582 1580 1578 1576 1575 1572 1571 1570 1570 1569 1567 1564 1562 1559 1557
1476 1479 1482 1486 1490 1494 1497 1501 1505 1509 1512 1515 1519 1522 1525 1528 1530 1533 1535 1538 1540 1542 1544 1546 1548 1550 1551 1553 1555 1556 1558 1559 1560 1563 1565 1567 1569 1570 1571 1572 1573 1574 1575 1576 1577 1578 1579 1580 1581 1581 1581 1582 1583 1583 1584 1585 1585 1586 1586 1586 1586 1586 1585 1585 1584 1584 1584 1583 1582 1581 1580 1578 1576 1574 1572 1569 1567 1567 1567 1567 1566 1564 1561 1557 1554
1472 1475 1479 1483 1487 1490 1493 1497 1501 1505 1508 1512 1515 1519 1522 1525 1527 1529 1532 1534 1537 1539 1541 1542 1544 1546 1548 1549 1551 1553 1554 1555 1557 1559 1562 1564 1566 1567 1568 1570 1570 1571 1572 1573 1574 1575 1576 1577 1578 1578 1579 1579 1580 1580 1581 1582 1582 1583 1583 1583 1582 1582 1582 1581 1581 1580 1580 1580 1579 1579 1577 1575 1573 1571 1569 1567 1564 1563 1563 1563 1563 1561 1559 1556 1552
1469 1472 1476 1480 1482 1486 1490 1494 1497 1501 1504 1508 1512 1515 1518 1521 1523 1526 1528 1531 1533 1535 1537 1538 1540 1543 1544 1546 1547 1549 1550 1551 1553 1556 1559 1561 1563 1564 1565 1566 1567 1567 1568 1569 1571 1572 1573 1574 1575 1575 1576 1576 1577 1577 1578 1578 1579 1579 1579 1579 1578 1578 1578 1578 1577 1577 1577 1576 1575 1575 1574 1573 1570 1568 1567 1565 1561 1559 1558 1558 1559 1558 1556 1554 1551
1466 1469 1472 1475 1478 1482 1486 1490 1494 1497 1501 1504 1508 1511 1514 1517 1519 1522 1525 1527 1529 1531 1533 1535 1537 1538 1540 1542 1543 1545 1547 1548 1549 1552 1555 1557 1559 1561 1562 1563 1564 1564 1565 1566 1567 1568 1569 1570 1571 1572 1573 1573 1574 1575 1575 1576 1576 1575 1574 1574 1574 1574 1574 1574 1574 1574 1573 1573 1572 1572 1571 1570 1568 1565 1564 1562 1559 1556 1554 1554 1554 1554 1552 1551 1548
1463 1465 1468 1471 1475 1479 1483 1486 1490 1494 1497 1500 1504 1507 1510 1513 1516 1519 1521 1523 1525 1527 1529 1531 1533 1535 1537 1538 1540 1541 1543 1544 1545 1548 1551 1554 1556 1557 1559 1560 1560 1560 1561 1562 1563 1564 1566 1567 1568 1569 1570 1570 1571 1572 1572 1573 1572 1571 1570 1570 1570 1570 1571 1571 1570 1570 1570 1570 1570 1569 1568 1567 1565 1563 1562 1560 1557 1554 1553 1551 1550 1549 1547 1545 1544
1460 1462 1465 1468 1471 1475 1479 1483 1486 1490 1493 1497 1500 1503 1506 1508 1511 1514 1517 1520 1522 1523 1525 1527 1529 1531 1533 1535 1536 1537 1539 1540 1542 1544 1547 1549 1552 1553 1555 1556 1556 1556 1557 1558 1559 1561 1562 1563 1564 1565 1566 1567 1568 1568 1569 1569 1569 1568 1567 1566 1566 1567 1568 1568 1568 1568 1568 1568 1567 1566 1565 1564 1563 1561 1559 1558 1555 1553 1552 1549 1548 1547 1543 1539 1538
1456 1458 1461 1464 1468 1471 1475 1479 1482 1486 1490 1493 1496 1499 1501 1504 1507 1511 1513 1516 1518 1519 1521 1524 1526 1527 1529 1530 1532 1533 1535 1537 1538 1540 1543 1545 1547 1549 1550 1551 1552 1552 1553 1554 1556 1557 1558 1559 1560 1561 1562 1563 1564 1565 1566 1566 1565 1564 1564 1563 1563 1563 1565 1566 1566 1566 1566 1566 1565 1563 1562 1561 1560 1558 1556 1555 1554 1553 1550 1547 1546 1545 1540 1536 1534
1451 1454 1457 1461 1465 1468 1472 1475 1479 1483 1486 1489 1492 1495 1498 1501 1504 1507 1509 1512 1514 1516 1518 1520 1522 1524 1525 1526 1528 1530 1532 1533 1534 1536 1538 1540 1542 1544 1546 1547 1547 1548 1549 1551 1552 1553 1554 1555 1556 1557 1558 1560 1561 1562 1562 1562 1562 1561 1560 1560 1559 1560 1561 1563 1564 1565 1564 1563 1561 1560 1559 1558 1556 1555 1554 1553 1553 1551 1548 1545 1544 1543 1539 1536 1534
1447 1450 1454 1458 1462 1465 1469 1472 1476 1480 1483 1486 1489 1492 1495 1498 1501 1503 1506 1508 1511 1513 1515 1516 1518 1520 1521 1523 1524 1526 1528 1529 1530 1532 1534 1536 1538 1540 1541 1542 1543 1544 1545 1547 1548 1549 1550 1551 1552 1553 1555 1556 1557 1558 1558 1559 1558 1557 1557 1557 1556 1557 1559 1561 1562 1562 1561 1560 1558 1557 1556 1555 1553 1551 1550 1550 1550 1549 1547 1545 1544 1541 1538 1537 1535
1444 1448 1452 1456 1459 1462 1466 1470 1473 1476 1479 1483 1486 1489 1492 1495 1498 1500 1503 1505 1507 1509 1511 1513 1514 1516 1518 1519 1520 1522 1524 1526 1526 1527 1530 1532 1534 1536 1537 1537 1538 1540 1542 1543 1544 1545 1546 1547 1548 1549 1551 1553 1554 1554 1554 1554 1554 1553 1553 1553 1553 1554 1557 1558 1558 1558 1558 1556 1554 1553 1552 1552 1550 1548 1547 1547 1547 1546 1545 1544 1542 1541 1538 1536 1535
1443 1447 1450 1453 1456 1460 1463 1467 1470 1474 1477 1480 1484 1487 1489 1492 1494 1497 1499 1502 1504 1505 1507 1509 1511 1513 1514 1516 1517 1518 1519 1521 1522 1523 1525 1527 1529 1531 1532 1533 1535 1537 1538 1540 1541 1542 1543 1544 1544 1545 1547 1549 1550 1550 1550 1550 1550 1550 1549 1549 1550 1552 1553 1553 1553 1553 1553 1552 1550 1550 1549 1549 1548 1546 1545 1544 1544 1543 1542 1541 1540 1539 1538 1536 1534
1441 1444 1447 1451 1454 1457 1460 1464 1467 1471 1474 1477 1480 1483 1486 1489 1491 1494 1496 1499 1500 1502 1504 1506 1508 1510 1511 1512 1513 1514 1515 1517 1518 1519 1521 1523 1525 1527 1528 1530 1532 1534 1535 1537 1538 1539 1540 1541 1542 1542 1543 1545 1546 1546 1546 1546 1546 1546 1546 1546 1548 1549 1549 1549 1549 1548 1548 1547 1547 1547 1546 1545 1544 1544 1543 1543 1542 1541 1540 1539 1538 1537 1535 1534 1532
1438 1442 1445 1448 1451 1454 1457 1460 1464 1467 1471 1474 1477 1480 1483 1486 1488 1490 1493 1495 1497 1499 1501 1503 1505 1506 1508 1509 1510 1511 1512 1513 1514 1515 1517 1519 1521 1523 1525 1527 1529 1530 1532 1534 1536 1537 1538 1539 1539 1539 1540 1542 1542 1542 1543 1542 1542 1542 1543 1544 1545 1546 1546 1545 1544 1543 1543 1542 1542 1542 1542 1541 1541 1541 1541 1540 1540 1539 1538 1537 1536 1535 1533 1531 1530
1436 1439 1442 1446 1449 1452 1455 1458 1461 1464 1468 1471 1474 1477 1480 1483 1485 1487 1490 1492 1495 1496 1498 1500 1501 1503 1504 1506 1507 1508 1509 1510 1510 1511 1513 1515 1517 1519 1522 1524 1526 1527 1529 1531 1534 1536 1536 1536 1536 1536 1536 1538 1538 1539 1539 1539 1539 1540 1540 1541 1542 1543 1542 1541 1540 1539 1537 1537 1538 1537 1537 1538 1538 1538 1537 1537 1537 1536 1535 1534 1533 1532 1530 1528 1527
1434 1437 1440 1443 1446 1449 1452 1456 1459 1462 1465 1468 1471 1474 1477 1479 1481 1484 1486 1489 1491 1493 1495 1497 1498 1499 1501 1502 1504 1505 1507 1507 1508 1508 1509 1512 1514 1516 1518 1521 1522 1524 1525 1527 1529 1531 1531 1532 1533 1533 1533 1534 1535 1535 1535 1535 1536 1537 1537 1538 1539 1539 1538 1538 1537 1536 1535 1535 1535 1535 1535 1535 1535 1535 1534 1534 1533 1533 1532 1530 1529 1528 1527 1525 1524
1432 1435 1438 1442 1445 1448 1451 1454 1457 1460 1463 1466 1468 1471 1473 1476 1478 1480 1483 1485 1487 1489 1491 1493 1495 1496 1497 1498 1500 1502 1504 1505 1505 1506 1506 1508 1511 1513 1515 1517 1518 1520 1521 1522 1524 1525 1527 1528 1529 1529 1530 1530 1531 1531 1531 1532 1533 1533 1534 1535 1536 1537 1536 1534 1533 1533 1534 1535 1535 1535 1535 1534 1533 1532 1531 1530 1530 1529 1528 1528 1527 1525 1524 1522 1521
1431 1434 1437 1441 1444 1447 1449 1452 1455 1458 1460 1463 1466 1468 1470 1473 1475 1477 1479 1481 1483 1485 1487 1489 1491 1493 1494 1495 1497 1499 1500 1501 1503 1504 1504 1505 1507 1509 1511 1512 1514 1516 1517 1518 1520 1521 1523 1524 1524 1525 1526 1526 1527 1527 1528 1529 1530 1530 1531 1532 1533 1534 1534 1532 1530 1530 1531 1532 1533 1533 1534 1533 1531 1530 1529 1528 1526 1525 1525 1524 1523 1522 1521 1519 1517
1430 1433 1436 1439 1442 1445 1447 1450 1453 1455 1458 1461 1464 1466 1467 1470 1472 1473 1475 1478 1480 1482 1484 1486 1487 1489 1491 1493 1494 1496 1497 1498 1499 1501 1502 1503 1503 1505 1506 1508 1509 1511 1512 1514 1516 1517 1518 1519 1520 1521 1521 1522 1523 1524 1524 1525 1526 1527 1528 1529 1530 1531 1531 1530 1528 1527 1527 1528 1529 1529 1531 1531 1530 1529 1527 1526 1524 1522 1521 1521 1520 1519 1518 1516 1514
1430 1433 1435 1438 1441 1443 1445 1448 1451 1454 1457 1458 1460 1462 1464 1466 1468 1471 1472 1474 1476 1478 1481 1483 1484 1486 1488 1490 1491 1492 1494 1495 1496 1497 1499 1500 1501 1502 1502 1503 1505 1506 1508 1510 1511 1512 1513 1514 1515 1516 1517 1519 1519 1520 1521 1522 1523 1524 1524 1525 1526 1526 1526 1526 1526 1525 1525 1526 1526 1526 1528 1530 1529 1527 1526 1524 1522 1520 1518 1517 1517 1516 1515 1514 1512
1429 1432 1434 1437 1440 1442 1444 1447 1449 1452 1454 1454 1455 1457 1460 1462 1465 1467 1469 1470 1472 1475 1477 1479 1481 1483 1485 1486 1487 1488 1490 1491 1492 1494 1495 1497 1498 1499 1500 1500 1501 1503 1505 1506 1507 1508 1508 1509 1510 1511 1513 1515 1516 1517 1518 1518 1519 1520 1521 1522 1523 1523 1523 1524 1524 1525 1527 1528 1527 1527 1528 1528 1527 1525 1524 1522 1521 1519 1517 1515 1515 1514 1513 1512 1511
1428 1430 1432 1435 1438 1441 1444 1446 1447 1449 1451 1451 1452 1454 1457 1460 1462 1464 1466 1467 1469 1471 1474 1476 1478 1480 1481 1482 1483 1485 1487 1488 1489 1491 1492 1493 1495 1496 1497 1497 1498 1500 1501 1502 1503 1504 1505 1506 1508 1509 1511 1512 1514 1515 1515 1515 1516 1517 1518 1519 1521 1522 1522 1523 1524 1526 1526 1526 1527 1527 1527 1526 1525 1524 1522 1521 1520 1518 1516 1514 1514 1513 1512 1511 1509
1426 1429 1431 1432 1435 1438 1441 1443 1445 1446 1448 1448 1449 1451 1454 1456 1459 1461 1463 1465 1467 1468 1470 1472 1475 1477 1478 1478 1480 1482 1484 1485 1487 1488 1489 1491 1492 1493 1494 1495 1496 1498 1499 1500 1501 1502 1503 1505 1506 1507 1508 1509 1510 1511 1511 1512 1513 1514 1515 1517 1518 1519 1520 1520 1521 1523 1524 1524 1525 1525 1525 1525 1524 1522 1520 1519 1518 1517 1515 1513 1512 1511 1510 1509 1508
1426 1428 1430 1431 1432 1435 1438 1440 1442 1443 1444 1444 1446 1449 1451 1453 1455 1457 1459 1461 1464 1465 1467 1469 1471 1473 1474 1475 1477 1479 1480 1482 1484 1485 1487 1488 1490 1491 1492 1494 1495 1496 1497 1497 1498 1499 1500 1500 1501 1502 1503 1505 1506 1507 1508 1508 1509 1510 1512 1514 1516 1516 1517 1517 1518 1520 1521 1522 1523 1523 1523 1523 1522 1520 1519 1518 1516 1515 1513 1512 1511 1510 1509 1508 1507
1425 1427 1429 1429 1430 1432 1435 1437 1439 1441 1441 1443 1445 1447 1448 1449 1451 1454 1456 1459 1461 1462 1464 1466 1467 1469 1470 1472 1474 1476 1478 1480 1481 1483 1485 1486 1487 1488 1490 1491 1492 1493 1493 1493 1493 1494 1495 1496 1496 1498 1500 1502 1503 1504 1505 1506 1507 1508 1509 1511 1513 1515 1516 1516 1517 1518 1519 1520 1520 1521 1521 1520 1519 1518 1517 1516 1515 1514 1512 1511 1511 1510 1508 1507 1506
1424 1426 1427 1427 1428 1430 1433 1436 1438 1439 1440 1441 1443 1444 1445 1446 1449 1452 1454 1455 1457 1459 1460 1462 1464 1466 1467 1469 1471 1473 1475 1477 1479 1480 1482 1483 1484 1486 1487 1488 1488 1488 1488 1489 1490 1491 1492 1493 1494 1496 1498 1499 1501 1503 1505 1506 1506 1508 1509 1510 1512 1514 1515 1515 1516 1517 1517 1518 1519 1518 1518 1518 1517 1516 1515 1514 1513 1512 1511 1511 1510 1509 1508 1507 1506
1423 1425 1426 1426 1425 1427 1432 1435 1437 1438 1439 1440 1441 1442 1442 1443 1446 1448 1450 1452 1455 1457 1458 1459 1461 1463 1465 1467 1469 1471 1473 1475 1477 1478 1479 1480 1482 1484 1485 1485 1485 1485 1486 1487 1488 1489 1490 1492 1493 1495 1496 1498 1499 1501 1504 1505 1507 1508 1509 1510 1511 1512 1513 1513 1514 1514 1515 1516 1517 1516 1516 1516 1516 1515 1514 1514 1513 1512 1511 1510 1510 1509 1508 1506 1505
1422 1424 1425 1424 1423 1425 1430 1433 1435 1436 1437 1437 1439 1439 1439 1441 1443 1445 1447 1450 1453 1456 1457 1457 1458 1460 1462 1465 1467 1469 1471 1473 1475 1476 1477 1479 1480 1481 1482 1482 1483 1484 1485 1486 1487 1488 1489 1491 1493 1494 1495 1497 1498 1500 1502 1505 1506 1508 1509 1509 1510 1511 1511 1511 1512 1513 1514 1515 1515 1514 1515 1515 1514 1513 1513 1513 1512 1511 1511 1510 1509 1508 1507 1506 1504
1422 1423 1424 1423 1424 1427 1430 1432 1433 1434 1435 1436 1436 1436 1437 1439 1441 1444 1446 1449 1452 1455 1457 1457 1457 1458 1461 1464 1466 1468 1470 1471 1473 1474 1475 1477 1478 1479 1480 1481 1483 1484 1485 1485 1487 1488 1489 1490 1492 1494 1495 1496 1497 1499 1502 1504 1506 1507 1508 1509 1509 1509 1509 1510 1510 1511 1512 1513 1513 1513 1513 1514 1513 1512 1512 1512 1511 1511 1510 1509 1509 1508 1507 1505 1504
1421 1421 1422 1423 1426 1429 1431 1432 1432 1433 1433 1434 1434 1435 1436 1438 1441 1443 1446 1449 1452 1454 1455 1456 1457 1458 1461 1463 1465 1467 1468 1469 1471 1472 1474 1475 1477 1478 1479 1481 1483 1484 1484 1485 1487 1488 1489 1490 1491 1493 1494 1496 1497 1499 1501 1503 1505 1506 1507 1508 1508 1508 1509 1509 1509 1509 1511 1512 1512 1512 1512 1512 1512 1511 1511 1511 1510 1510 1509 1508 1508 1507 1506 1505 1504
1420 1419 1420 1424 1429 1431 1432 1431 1431 1431 1432 1432 1433 1435 1436 1438 1441 1444 1447 1449 1451 1453 1453 1454 1456 1458 1459 1461 1463 1464 1466 1467 1469 1470 1472 1474 1476 1478 1479 1481 1483 1484 1485 1485 1487 1488 1489 1490 1491 1492 1494 1495 1496 1498 1500 1502 1503 1504 1505 1507 1507 1507 1508 1508 1508 1509 1510 1511 1511 1511 1511 1511 1510 1510 1510 1510 1509 1508 1508 1507 1506 1506 1504 1503 1502
1422 1420 1421 1426 1431 1432 1432 1431 1430 1430 1431 1432 1433 1434 1436 1438 1441 1443 1445 1447 1448 1449 1451 1453 1454 1456 1458 1460 1462 1464 1465 1467 1468 1470 1472 1474 1476 1478 1479 1481 1483 1484 1485 1485 1486 1488 1489 1490 1490 1492 1493 1494 1495 1496 1498 1500 1502 1503 1504 1505 1506 1506 1506 1507 1507 1508 1509 1510 1510 1510 1510 1510 1509 1509 1509 1508 1507 1507 1507 1507 1506 1505 1504 1503 1502
1427 1423 1423 1427 1430 1431 1431 1431 1430 1429 1429 1430 1431 1433 1435 1437 1439 1441 1443 1444 1446 1447 1449 1451 1454 1456 1458 1460 1462 1464 1466 1468 1470 1472 1474 1475 1477 1478 1479 1481 1482 1483 1484 1485 1486 1487 1488 1489 1490 1491 1492 1493 1494 1496 1497 1499 1500 1502 1503 1504 1504 1504 1505 1505 1506 1506 1507 1508 1509 1509 1509 1509 1508 1508 1507 1507 1506 1507 1507 1506 1505 1504 1503 1502 1501
1430 1428 1427 1428 1430 1432 1431 1431 1430 1430 1429 1429 1430 1431 1433 1435 1438 1440 1442 1443 1445 1446 1448 1450 1453 1456 1458 1461 1463 1465 1467 1469 1472 1474 1475 1476 1478 1479 1480 1482 1483 1483 1484 1485 1485 1486 1487 1488 1489 1490 1491 1492 1494 1495 1496 1498 1499 1501 1502 1503 1503 1503 1504 1504 1504 1504 1505 1506 1506 1506 1506 1507 1507 1507 1507 1507 1506 1506 1505 1504 1503 1502 1501 1500 1499
1432 1432 1430 1429 1430 1432 1432 1431 1430 1430 1429 1429 1430 1431 1432 1434 1436 1438 1441 1443 1446 1448 1449 1451 1453 1456 1458 1461 1464 1466 1468 1470 1472 1474 1476 1477 1478 1479 1480 1481 1482 1483 1484 1484 1485 1486 1486 1487 1488 1489 1491 1492 1493 1494 1496 1497 1499 1500 1501 1501 1502 1502 1502 1503 1503 1504 1504 1504 1504 1504 1505 1505 1505 1505 1505 1505 1505 1504 1503 1502 1501 1500 1499 1498 1497
1433 1434 1432 1431 1432 1433 1432 1432 1431 1431 1430 1430 1430 1431 1432 1433 1435 1437 1440 1443 1446 1448 1450 1452 1454 1456 1458 1461 1464 1466 1468 1470 1472 1474 1475 1477 1478 1479 1480 1481 1482 1483 1483 1484 1485 1485 1486 1487 1488 1489 1490 1492 1493 1494 1495 1496 1498 1499 1499 1500 1501 1501 1501 1502 1502 1502 1503 1503 1503 1503 1503 1503 1503 1503 1503 1503 1502 1502 1501 1500 1499 1498 1497 1496 1495
1434 1435 1434 1433 1433 1434 1434 1433 1432 1432 1431 1431 1432 1433 1433 1433 1435 1438 1441 1443 1446 1449 1450 1452 1454 1457 1459 1462 1464 1466 1468 1470 1472 1474 1475 1477 1478 1479 1480 1481 1482 1483 1484 1484 1485 1486 1486 1487 1488 1489 1490 1491 1493 1494 1495 1496 1497 1498 1498 1499 1500 1500 1500 1501 1501 1501 1501 1501 1501 1501 1501 1501 1500 1500 1500 1499 1499 1499 1498 1497 1497 1495 1494 1493 1492
1434 1435 1435 1435 1435 1435 1435 1434 1434 1434 1434 1435 1436 1436 1436 1435 1437 1440 1442 1444 1447 1449 1451 1453 1455 1458 1460 1462 1464 1466 1468 1470 1472 1474 1475 1477 1478 1480 1481 1482 1483 1483 1484 1485 1485 1486 1487 1488 1488 1489 1491 1491 1493 1494 1495 1495 1496 1497 1498 1498 1499 1499 1499 1499 1499 1499 1499 1499 1499 1499 1498 1498 1497 1497 1496 1496 1496 1496 1495 1494 1494 1492 1491 1490 1489
1434 1435 1436 1437 1437 1436 1435 1435 1436 1437 1437 1438 1439 1439 1439 1439 1440 1442 1444 1446 1448 1450 1453 1455 1457 1459 1461 1463 1465 1467 1469 1471 1473 1474 1476 1478 1479 1481 1482 1483 1483 1484 1485 1485 1486 1487 1488 1488 1489 1490 1491 1492 1493 1494 1494 1495 1496 1496 1497 1497 1498 1498 1498 1498 1497 1497 1497 1496 1496 1496 1495 1495 1494 1494 1493 1493 1493 1492 1491 1491 1490 1489 1488 1487 1486
1434 1435 1437 1439 1439 1438 1437 1437 1438 1438 1439 1441 1441 1441 1442 1443 1444 1445 1446 1448 1450 1452 1455 1457 1459 1461 1463 1465 1467 1468 1470 1472 1474 1476 1477 1479 1480 1481 1482 1483 1484 1485 1485 1486 1487 1488 1489 1489 1490 1491 1492 1492 1493 1494 1494 1494 1495 1495 1496 1496 1496 1496 1496 1496 1495 1495 1495 1494 1494 1493 1493 1492 1491 1491 1490 1490 1490 1489 1488 1488 1487 1486 1485 1484 1483
1435 1435 1436 1438 1439 1439 1439 1439 1440 1440 1441 1442 1443 1443 1444 1445 1446 1447 1449 1450 1452 1455 1457 1459 1461 1463 1465 1466 1468 1470 1472 1473 1475 1477 1478 1480 1481 1482 1482 1483 1484 1485 1486 1487 1488 1489 1490 1490 1491 1492 1492 1492 1493 1493 1494 1494 1494 1494 1494 1494 1494 1494 1494 1494 1494 1493 1493 1492 1492 1491 1490 1489 1489 1488 1487 1487 1487 1486 1485 1484 1483 1482 1481 1481 1480
1435 1435 1435 1436 1437 1438 1439 1440 1441 1441 1441 1442 1444 1445 1445 1445 1446 1448 1450 1453 1455 1457 1459 1461 1463 1465 1467 1468 1470 1471 1473 1474 1476 1478 1479 1480 1481 1482 1483 1484 1485 1486 1487 1488 1489 1490 1490 1491 1492 1492 1493 1493 1493 1493 1493 1493 1493 1493 1493 1493 1493 1492 1492 1492 1491 1491 1490 1490 1489 1489 1488 1487 1486 1486 1485 1484 1483 1482 1481 1481 1480 1479 1478 1477 1477